Flag Weather past 2 weeks in Stockholm, Sweden

Now
34 °F

Fog.


Feels Like: 34 °F
Forecast: 31 / 35 °F
Wind: 2 mph from North

Location: Stockholm Bromma Airport

Current Time: Nov 26, 2014 at 10:23:14 AM

Latest Report: Nov 26, 2014 at 9:50 AM


Visibility: 0 mi

Pressure: 30.27 "Hg

Humidity: 100%

Dew point: 34 °F

Location of StockholmLocation

Historic Weather in Stockholm — Graph

°F

Stockholm temperature yesterday

Maximum temperature yesterday: 43 °F (at 12:20 AM)
Minimum temperature yesterday: 30 °F (at 8:50 PM)
Average temperature yesterday: 38 °F

Past Weeks' High & Low Weather Summary

 TemperatureHumidityPressure
High50 °F (Nov 11, 12:20 PM)100% (Nov 11, 5:50 PM)30.48 "Hg (Nov 11, 5:50 PM)
Low28 °F (Nov 26, 12:50 AM)57% (Nov 18, 5:50 PM)29.86 "Hg (Nov 11, 9:20 AM)
Average41 °F85%30.25 "Hg
* Reported Nov 11 9:20 AM — Nov 26 9:20 AM, Stockholm, Weather by CustomWeather, © 2014

Note: Actual official high and low records may vary slightly from our data, if they occured in-between our weather recording intervals... More about our weather records

Advertising

Stockholm weather history for previous 24 hours

 ConditionsComfort  
Time TempWeatherWind HumidityBarometerVisibility
9:20 AM
Nov 26
34 °FFog.2 mph100%30.27 "Hg0 mi
8:50 AM34 °FFog.2 mph100%30.27 "Hg0 mi
8:20 AM32 °FFog.No wind100%30.27 "Hg0 mi
7:50 AM32 °FFog.2 mph100%30.24 "Hg0 mi
7:20 AM32 °FFog.1 mph100%30.24 "Hg0 mi
6:50 AM32 °FFog.3 mph100%30.24 "Hg0 mi
6:20 AM32 °FIce fog.No wind100%30.24 "Hg0 mi
5:50 AM32 °FIce fog.1 mph93%30.24 "Hg0 mi
5:20 AM30 °FIce fog.No wind100%30.24 "Hg0 mi
4:20 AM28 °FPassing clouds.No wind100%30.24 "Hg0 mi
3:50 AM28 °FLight fog.2 mph100%30.24 "Hg0 mi
3:20 AM28 °FIce fog.1 mph100%30.24 "Hg0 mi
2:50 AM28 °FLight fog.2 mph100%30.24 "Hg0 mi
2:20 AM28 °FIce fog.2 mph93%30.24 "Hg0 mi
1:50 AM28 °FLight fog.No wind100%30.24 "Hg1 mi
1:20 AM28 °FIce fog.1 mph100%30.24 "Hg1 mi
12:50 AM28 °FPassing clouds.No wind100%30.24 "Hg0 mi
12:20 AM30 °FIce fog.No wind100%30.24 "Hg0 mi
11:50 PM
Nov 25
30 °FIce fog.1 mph93%30.24 "Hg2 mi
11:20 PM30 °FPassing clouds.No wind100%30.24 "Hg1 mi
10:50 PM30 °FPassing clouds.No wind100%30.24 "Hg2 mi
10:20 PM32 °FPassing clouds.2 mph100%30.24 "Hg1 mi
9:50 PM30 °FClear.No wind100%30.24 "Hg10 mi
9:20 PM30 °FClear.No wind100%30.24 "Hg10 mi
8:50 PM30 °FClear.2 mph100%30.24 "Hg10 mi
8:20 PM32 °FClear.2 mph93%30.21 "Hg10 mi
7:50 PM32 °FClear.1 mph100%30.21 "Hg10 mi
7:20 PM32 °FClear.1 mph93%30.21 "Hg10 mi
6:50 PM32 °FClear.2 mph93%30.21 "Hg10 mi
6:20 PM34 °FClear.3 mph100%30.21 "Hg10 mi
5:50 PM32 °FClear.2 mph100%30.21 "Hg10 mi
5:20 PM34 °FClear.2 mph93%30.21 "Hg10 mi
4:50 PM34 °FClear.2 mph93%30.21 "Hg10 mi
4:20 PM36 °FClear.2 mph93%30.21 "HgN/A
3:50 PM36 °FPassing clouds.3 mph100%30.18 "HgN/A
3:20 PM37 °FPassing clouds.2 mph93%30.18 "HgN/A
2:50 PM39 °FPassing clouds.2 mph87%30.18 "HgN/A
2:20 PM39 °FScattered clouds.3 mph93%30.18 "HgN/A
1:50 PM39 °FPassing clouds.5 mph93%30.18 "HgN/A
1:20 PM41 °FPartly sunny.5 mph87%30.15 "HgN/A
12:50 PM39 °FPartly sunny.5 mph93%30.15 "HgN/A
12:20 PM41 °FPartly sunny.7 mph87%30.15 "HgN/A
11:50 AM41 °FPartly sunny.10 mph87%30.15 "HgN/A
11:20 AM41 °FPartly sunny.9 mph93%30.12 "HgN/A
10:50 AM43 °FBroken clouds.9 mph87%30.12 "HgN/A
10:20 AM41 °FPartly sunny.7 mph100%30.12 "HgN/A
Weather by CustomWeather, © 2014

See weather overviewHow to use our weather pages